User: anonymous   Login
Location: Unspecified
(0.0000°N, 0.0000°E)
Time: 18:14:14
(UTC+00:00)
Language:

CUSAT 1 - Orbit

View from above orbital plane
View from above orbital plane
View from above satellite
View from above satellite

Ground track
Ground track

The orbit data is extracted from the following two-line orbital elements,

1 39266U 13055B   23273.77792419  .00030618  00000-0  65529-3 0  9991
2 39266  80.9685  89.3271 0500020 234.0169 121.3697 14.69083618522730
Epoch (UTC): 30 September 2023 18:40:12
Eccentricity: 0.0500020
inclination: 80.9685°
perigee height: 312 km
apogee height: 1016 km
right ascension of ascending node: 89.3271°
argument of perigee: 234.0169°
revolutions per day: 14.69083618
mean anomaly at epoch: 121.3697°
orbit number at epoch: 52273

The dashed part of the orbit path shows where the satellite is in the earth's shadow,  

DLR